Theta_e
350 351 351 352 352 352 352 351 351 349 350 351 350 350 351 351 351 351 351 350 350 348 345 344 343 340 339 340 341 341 339 339 340 340 342 346 345 344 346 345 344 343 343 343 346 349 349 348 348 348 349 349 346 343 343 344 345 345 346 347 346 346 344 343 343 342 342 343 343 343 343 344 343 343 343 341 340 339 336 336 339 341 341 341 340
351 352 352 353 354 354 353 352 351 350 351 351 350 350 351 351 351 352 351 350 350 347 344 343 341 340 338 339 341 340 339 338 339 338 339 344 343 342 343 343 342 343 343 343 343 347 348 348 349 348 348 349 349 347 345 344 344 344 345 346 346 347 346 346 343 341 340 341 341 341 342 343 343 344 344 343 343 341 340 339 339 339 338 338 338
353 354 354 355 355 354 353 353 352 351 351 351 350 350 351 351 352 353 351 350 349 346 345 342 341 340 338 338 339 339 339 338 337 336 336 341 342 341 342 342 342 342 343 343 343 344 345 346 348 349 349 349 349 348 347 346 345 344 345 344 345 346 347 347 345 343 342 340 339 339 339 339 340 342 344 344 344 342 341 341 340 337 335 333 334
356 357 356 355 355 354 353 352 353 352 351 352 351 351 351 351 352 352 351 350 347 344 344 341 341 340 339 339 337 339 340 338 338 336 334 335 338 341 342 342 342 341 341 341 342 343 344 345 346 349 350 350 349 348 348 348 347 346 347 346 345 346 346 346 346 346 345 343 341 339 338 338 338 339 341 343 343 343 342 342 340 339 336 333 330
357 357 356 356 355 353 352 353 353 352 352 353 353 352 351 351 350 350 349 348 345 344 343 340 341 340 341 340 337 340 340 338 339 337 334 333 337 340 342 344 343 342 341 340 341 341 341 342 344 348 350 350 350 349 349 349 348 347 347 347 347 347 347 346 346 346 346 345 344 342 341 339 338 337 338 339 340 342 342 342 342 342 340 338 334
356 355 354 356 356 354 353 354 354 352 352 353 354 353 351 350 350 349 348 347 345 344 342 341 342 342 342 341 339 341 340 339 339 335 335 336 337 339 342 345 345 345 345 343 342 340 337 338 341 345 348 349 350 350 349 347 347 346 345 345 346 346 345 345 346 346 346 346 346 345 343 342 341 340 338 338 338 339 340 339 340 341 341 342 340
358 355 353 356 356 355 354 354 353 352 352 353 352 352 352 350 350 349 347 346 345 344 342 341 340 342 342 340 340 341 339 340 338 336 339 338 339 340 340 341 342 344 346 344 344 343 339 338 338 341 346 349 349 349 348 347 346 345 346 345 345 344 343 344 345 345 345 346 346 345 345 344 343 342 341 340 340 339 339 338 338 338 338 339 340
357 353 351 354 356 356 354 353 351 351 353 353 352 353 352 350 349 348 347 346 345 344 342 340 339 341 341 340 341 340 338 340 338 338 340 339 338 340 341 341 340 344 344 343 345 345 342 340 339 340 344 348 349 348 348 348 346 346 346 346 344 343 344 345 344 342 342 344 345 346 346 345 345 344 343 342 341 341 340 339 338 337 336 336 336
355 353 351 353 356 356 355 355 353 352 354 354 353 353 352 350 348 348 347 346 345 344 342 339 339 340 340 339 341 341 339 339 340 340 340 340 338 338 342 343 343 345 345 345 346 345 343 342 341 340 343 347 349 349 349 349 348 348 348 346 344 344 345 345 343 342 342 344 345 346 347 346 346 346 345 344 343 343 342 341 340 339 338 336 334
354 353 352 352 356 357 357 357 355 353 355 355 353 352 351 349 348 347 346 346 345 344 342 341 340 339 339 339 341 342 340 340 341 340 340 340 336 336 340 341 342 343 343 345 345 345 344 344 344 343 341 342 346 348 348 349 349 348 348 346 344 345 345 344 343 343 344 345 345 346 346 346 346 346 345 345 345 345 344 343 343 342 341 340 338
352 352 352 352 354 357 358 358 356 353 353 354 354 352 350 348 347 347 347 346 344 343 342 341 340 339 340 340 341 342 340 341 342 339 339 339 334 335 339 340 340 340 340 342 343 343 343 344 346 346 343 341 343 344 346 347 347 348 347 346 345 345 346 345 344 344 344 345 344 344 345 345 346 346 346 346 345 345 345 344 344 343 343 342 341
353 353 354 354 354 357 359 357 356 354 353 353 352 350 348 347 347 345 346 346 345 342 340 339 338 339 341 340 341 341 339 340 340 340 339 337 334 335 337 337 337 338 338 338 341 342 342 344 344 345 344 344 346 346 346 346 346 346 347 346 346 346 346 346 346 345 345 346 345 345 345 345 346 346 346 346 346 345 345 345 344 343 343 342 342
356 355 355 356 356 358 358 356 355 356 354 352 350 348 347 346 345 343 343 343 343 341 339 340 340 342 344 343 342 341 340 341 341 341 338 335 333 334 335 334 334 336 337 338 339 341 341 343 343 344 344 344 346 346 346 346 346 346 346 346 345 345 346 346 346 346 346 347 347 346 346 346 347 347 347 346 345 345 346 346 345 345 344 343 342
357 356 356 357 357 357 357 356 356 355 352 349 347 347 346 345 344 343 343 341 339 338 339 340 342 344 344 344 345 343 341 341 341 342 337 333 334 334 333 333 333 333 334 336 337 338 339 340 342 343 343 343 344 345 345 346 346 344 344 345 346 347 346 346 346 346 346 347 347 347 347 348 347 347 347 346 346 346 346 346 346 346 345 344 343
359 358 357 358 357 356 355 355 354 351 349 347 347 347 345 344 342 341 341 340 338 338 340 340 340 343 344 348 349 348 348 344 341 340 335 332 332 333 333 332 333 331 331 333 333 335 338 338 339 339 340 342 343 343 343 344 343 341 340 342 345 346 347 347 346 347 347 347 347 347 347 347 347 347 347 347 347 346 346 346 346 346 346 345 345
361 360 359 357 356 355 354 352 350 349 349 348 347 346 344 342 342 341 341 341 340 340 342 340 340 342 346 350 348 350 354 349 343 339 333 333 332 330 331 332 333 330 329 332 330 332 337 336 335 335 337 338 341 342 343 343 342 340 338 338 339 342 344 345 345 346 346 346 347 347 347 347 347 347 347 348 347 347 347 347 346 346 346 346 345
360 358 358 356 354 353 352 351 350 349 348 347 345 343 343 341 342 343 340 341 342 340 341 339 340 341 343 347 347 349 353 346 344 344 335 333 334 331 331 332 333 331 330 332 330 330 333 333 333 335 335 335 337 339 341 342 342 340 338 331 328 332 335 338 340 342 343 344 345 345 345 346 346 347 347 347 347 347 347 347 347 347 346 346 346
358 356 355 354 353 352 352 351 350 349 347 346 343 341 341 341 341 341 340 342 342 340 340 336 338 340 339 341 343 346 347 343 348 352 342 335 334 332 332 331 331 330 330 332 331 329 329 330 331 333 334 333 333 335 337 337 337 336 330 322 320 322 325 328 332 335 338 340 340 341 342 343 344 345 345 346 347 347 347 347 347 347 346 346 347
355 355 354 352 352 352 351 350 348 347 346 345 342 340 340 341 341 340 341 342 341 340 340 337 337 338 337 338 338 339 340 342 348 351 348 345 337 330 330 330 330 330 330 330 331 331 329 329 329 329 332 333 331 333 334 333 332 330 323 317 317 318 318 320 322 325 328 330 332 334 335 336 338 340 341 343 344 345 345 345 346 346 346 346 346
354 353 353 352 352 352 351 349 347 346 345 344 342 340 341 342 341 341 342 342 341 341 341 341 339 338 338 338 337 338 338 339 341 340 345 349 344 336 332 329 328 328 329 328 328 330 331 331 329 327 330 332 330 330 332 333 333 332 327 319 316 316 316 317 317 318 319 320 322 323 325 327 329 331 334 336 339 341 342 343 344 345 345 346 346
353 352 352 351 350 351 351 349 347 345 344 343 341 339 340 342 342 342 343 341 341 341 340 340 340 339 340 338 337 339 338 336 336 334 339 345 344 342 336 331 331 330 329 329 328 329 331 332 330 329 329 330 330 329 330 332 333 332 330 323 316 316 316 316 316 316 316 317 317 317 318 319 320 322 324 327 330 333 336 338 341 342 344 344 345
354 353 352 351 350 351 350 348 346 345 343 341 340 339 340 341 341 341 342 341 341 340 339 339 339 339 340 338 338 340 337 335 335 333 336 340 340 339 334 333 335 333 330 330 330 330 331 330 330 330 330 329 329 329 329 330 330 330 330 325 319 317 317 317 317 316 316 316 316 316 317 317 317 317 318 319 321 323 327 330 334 337 340 342 343
355 354 353 352 351 350 349 348 347 345 342 340 339 339 340 340 339 340 340 340 340 339 338 338 338 339 339 337 337 336 334 335 334 332 333 337 340 339 334 332 334 332 331 332 331 332 332 332 331 331 331 330 329 330 329 328 329 329 327 325 323 322 321 320 318 318 317 316 316 316 316 316 317 316 317 317 317 318 318 320 323 327 330 334 337
354 353 352 351 351 350 349 348 347 345 342 340 340 338 338 339 339 339 340 340 339 339 339 338 337 338 338 336 334 332 332 333 332 331 333 333 336 339 336 334 337 336 333 332 333 333 334 334 333 332 331 331 330 330 329 329 328 328 328 327 327 327 326 325 323 321 318 316 316 316 316 316 317 317 317 317 317 317 317 317 317 318 320 323 326
353 351 351 350 350 350 349 347 346 345 342 341 339 338 338 339 340 339 339 340 340 339 339 339 338 337 337 337 336 333 333 334 332 332 333 333 334 337 337 336 338 338 334 334 335 335 334 334 333 333 332 331 331 331 330 329 329 329 329 329 329 329 329 328 327 326 323 319 317 316 316 316 316 317 317 317 317 317 317 318 317 317 317 317 318
353 351 350 350 349 349 349 347 346 344 342 340 339 338 339 340 339 339 339 339 339 339 339 338 338 337 337 337 336 334 334 334 334 332 332 333 334 337 339 339 338 336 335 336 336 335 334 333 333 334 333 332 332 332 331 329 329 329 330 330 330 330 330 329 329 329 329 327 323 320 317 316 316 316 316 317 317 317 317 317 318 318 318 318 317
353 351 350 349 349 348 348 347 346 344 341 340 340 340 340 340 340 339 338 338 338 338 338 338 337 337 337 336 336 336 336 336 336 335 334 334 335 336 339 342 341 339 337 337 336 336 335 333 333 333 332 332 332 331 332 331 330 330 330 331 330 330 330 330 331 331 331 331 330 327 322 318 317 316 316 316 317 317 317 317 317 318 318 318 318
353 351 350 349 348 348 348 347 345 343 342 340 340 341 341 340 340 339 338 338 338 337 337 337 337 337 336 336 336 335 336 337 337 337 336 335 336 336 336 339 341 342 341 340 339 337 335 333 333 333 332 331 332 332 332 332 331 332 331 331 331 331 331 332 332 332 332 331 331 330 327 323 320 319 318 317 317 317 317 317 317 317 317 318 318
354 352 351 349 348 348 348 346 344 343 342 341 340 341 341 341 341 340 338 337 337 336 337 337 337 337 337 336 335 335 335 335 335 335 334 334 335 336 336 337 338 341 342 341 340 337 334 332 332 333 332 331 332 332 331 331 331 332 332 331 331 331 331 332 332 332 332 331 331 330 330 326 323 321 320 319 317 317 317 317 317 317 317 317 317
355 354 352 350 349 348 347 346 344 343 343 342 341 341 342 341 340 340 338 337 337 337 336 336 337 338 338 337 337 337 336 335 335 335 334 334 335 336 337 337 337 339 340 340 340 337 334 333 332 332 332 332 332 332 331 332 332 332 331 331 331 331 331 331 332 332 332 331 331 330 330 328 325 324 323 322 320 318 317 317 317 318 317 317 317
355 354 353 352 350 348 347 345 345 344 343 343 342 342 342 342 340 340 339 337 337 338 337 337 337 337 337 337 337 336 336 335 335 335 334 335 336 336 337 338 338 338 338 339 340 338 335 334 333 332 332 332 332 331 331 332 331 332 331 331 332 331 331 331 331 332 332 331 331 330 330 329 329 328 327 326 324 322 321 319 319 319 318 318 317
355 354 353 352 351 349 347 346 345 344 344 344 343 342 342 341 341 340 339 338 337 337 337 336 337 336 336 336 336 335 335 336 335 335 334 335 336 336 337 337 337 337 337 338 340 340 337 336 335 333 332 331 331 331 331 331 331 331 332 332 332 332 332 331 331 331 332 333 333 332 331 330 330 329 329 329 328 327 325 324 323 322 321 320 319
354 354 353 352 352 350 347 347 347 346 345 344 343 343 342 341 341 340 339 338 337 337 336 336 336 336 336 336 336 335 336 336 335 335 335 336 335 335 336 336 336 335 335 336 339 339 337 336 335 334 333 332 332 331 331 331 332 331 332 332 332 332 332 332 332 332 332 333 333 332 332 331 330 330 330 330 329 329 328 328 327 327 325 323 322
353 354 354 353 352 351 349 347 347 346 345 344 344 344 342 340 340 340 339 339 338 337 336 336 336 335 335 335 335 335 335 336 336 335 336 336 336 335 334 335 335 334 334 335 336 337 336 335 335 335 334 334 333 333 332 332 332 332 331 332 332 332 332 332 333 333 333 333 332 332 331 331 330 330 330 329 329 329 329 328 327 327 326 325 324
352 354 355 354 353 351 349 348 347 346 345 344 343 343 342 340 339 338 339 339 339 338 337 337 336 336 335 335 335 335 335 336 336 336 336 336 335 334 334 334 334 334 333 333 334 336 336 335 334 335 335 335 335 334 334 334 333 332 332 332 332 331 332 332 333 333 333 333 332 332 332 331 330 330 329 329 328 328 328 327 326 326 325 325 325
353 354 356 356 354 352 350 348 347 345 344 343 343 343 342 340 338 336 338 340 339 339 339 338 337 336 335 335 335 335 335 336 336 335 335 336 335 334 334 333 333 334 334 334 335 336 336 336 336 336 335 335 335 335 334 334 334 333 332 332 331 331 331 331 332 332 332 332 332 332 332 331 331 330 329 328 328 328 327 327 326 326 326 325 325
356 356 357 357 355 353 350 349 347 345 343 344 343 342 342 341 338 336 338 340 339 338 338 338 337 336 335 334 335 335 335 335 335 334 335 335 335 334 334 334 334 335 335 336 336 336 337 338 337 335 334 334 335 336 334 334 334 332 331 331 330 330 330 330 331 332 332 331 331 331 331 330 330 329 329 328 328 328 328 328 327 327 327 326 326
359 359 358 357 356 354 351 349 347 344 344 344 343 342 341 341 339 337 339 340 339 338 339 338 337 336 336 335 335 336 335 335 335 335 335 335 334 334 334 334 334 335 336 337 337 337 337 337 337 335 334 335 336 334 333 333 333 332 330 329 329 330 331 331 332 331 331 330 330 330 330 330 330 330 330 329 329 329 329 328 328 327 327 327 326
360 360 360 358 357 355 352 350 348 345 344 344 343 342 341 341 340 339 339 340 340 340 340 339 337 336 336 336 336 335 335 335 335 335 334 335 334 334 334 333 334 335 336 337 337 336 335 336 336 336 335 334 334 333 332 331 331 330 330 330 330 330 331 331 331 330 329 329 329 330 330 330 330 330 329 329 329 329 329 328 328 327 327 327 326
360 360 360 359 357 356 353 351 348 346 344 344 344 342 341 341 341 341 340 340 340 340 340 339 337 336 336 336 336 335 335 335 335 334 334 335 335 334 333 333 333 335 335 335 335 335 335 336 336 334 334 333 333 332 331 331 331 331 330 329 330 329 329 329 329 329 329 330 330 330 329 329 329 329 329 328 328 329 328 328 328 328 328 328 327
360 359 360 359 358 356 353 351 349 346 345 344 343 343 342 341 342 341 341 341 340 341 340 338 337 337 337 336 335 335 335 335 334 334 334 334 334 334 334 333 333 334 334 334 334 335 335 336 335 334 333 333 332 331 330 330 330 330 329 328 329 329 328 329 329 329 330 330 330 329 328 328 328 329 329 328 328 329 329 329 329 329 329 329 328
360 359 358 359 358 355 353 351 349 347 347 345 344 342 341 341 342 341 341 341 341 341 339 337 336 337 335 334 334 333 333 334 334 333 332 331 332 333 334 334 334 334 333 332 332 332 334 335 334 334 333 332 331 330 330 330 329 328 329 329 329 329 329 330 330 329 329 328 328 328 328 328 328 329 328 328 328 327 327 328 329 329 329 328 328
360 359 358 357 357 355 353 352 349 349 348 347 344 342 341 341 340 340 340 341 341 340 338 337 336 334 332 332 333 334 334 333 333 332 331 330 331 332 332 332 332 332 332 331 330 330 331 333 333 333 332 331 330 329 329 330 329 329 329 330 330 330 330 330 330 329 327 327 328 328 328 328 327 327 326 325 325 325 325 326 327 327 327 326 326
360 360 358 356 356 355 354 352 351 350 349 347 344 342 342 342 340 339 342 342 341 340 338 337 335 333 333 333 334 335 335 334 333 332 332 332 331 332 333 334 333 332 334 334 332 329 329 329 331 331 331 330 330 329 329 330 330 329 329 329 329 329 329 329 329 328 327 326 326 326 326 325 324 325 325 324 323 324 324 325 325 325 325 325 324
360 359 358 356 355 355 353 352 352 351 350 347 345 343 343 342 339 340 342 342 342 341 339 338 336 335 334 333 334 335 335 333 332 332 333 332 333 333 333 334 334 334 334 335 334 332 330 329 329 330 330 329 329 329 329 330 330 329 328 328 327 327 327 326 326 325 324 323 323 324 324 323 323 324 324 324 324 324 324 324 324 324 325 324 323
359 359 357 356 355 354 353 352 351 351 349 347 345 344 344 341 340 341 343 342 341 340 339 338 335 334 333 333 334 335 334 331 331 331 332 333 333 334 333 332 332 332 333 334 335 334 332 331 331 331 329 329 329 329 329 329 328 327 326 326 325 324 323 323 322 322 322 322 323 324 324 324 324 325 325 325 324 324 324 323 323 323 323 322 320
359 358 357 355 354 353 352 351 351 350 349 347 345 344 343 341 340 341 341 340 339 338 336 334 329 329 333 333 332 333 332 331 330 330 332 333 333 333 332 331 331 331 333 334 333 332 331 331 331 331 330 329 328 328 328 326 324 324 322 322 321 321 321 322 322 323 323 322 322 324 325 325 324 325 325 323 322 321 321 321 321 320 320 319 319
359 358 356 355 354 353 352 351 350 349 347 346 345 343 342 340 339 339 339 337 336 334 332 330 327 328 331 331 330 331 330 329 328 330 332 332 331 332 332 332 332 333 332 332 331 331 330 329 329 329 329 328 327 326 324 323 322 321 319 319 320 321 322 323 323 323 322 322 321 322 323 323 322 322 321 320 319 319 319 319 319 319 318 318 317
359 357 356 355 354 353 352 351 349 347 345 344 344 342 341 340 338 337 336 334 333 331 330 329 329 330 332 331 330 329 327 325 326 329 332 332 331 331 333 334 334 333 331 330 330 329 328 328 327 327 327 326 325 324 322 321 320 319 319 320 320 321 322 323 323 322 322 322 322 322 322 322 321 320 319 319 318 318 318 317 317 317 316 316 316
358 357 356 355 353 352 351 349 348 346 343 342 342 341 340 339 337 334 332 332 331 330 329 328 330 332 332 329 327 325 323 322 324 328 331 332 331 331 333 335 333 331 330 330 329 328 328 327 327 326 326 325 324 323 321 320 320 320 320 320 320 321 322 323 323 323 322 322 322 321 321 320 319 318 317 317 316 316 316 315 314 314 315 316 317
357 354 353 352 351 350 349 347 346 344 342 340 340 341 341 339 334 330 329 329 330 330 330 331 332 332 328 325 324 322 321 322 325 328 331 332 332 332 333 333 331 330 330 329 328 328 327 327 327 326 325 324 323 322 321 321 321 321 321 321 321 322 323 323 323 324 323 323 322 318 317 317 317 316 316 316 315 315 314 314 314 315 316 318 320
Wind_Speed
8 7 7 7 4 4 4 3 3 3 3 3 3 2 3 5 5 6 6 7 7 7 8 8 10 8 5 5 6 7 8 5 3 3 3 7 4 2 1 2 2 2 5 8 10 10 11 12 13 12 12 12 11 11 11 11 11 11 10 11 11 10 10 10 9 9 10 10 10 10 10 10 11 10 10 10 9 9 9 8 8 8 8 7 6
6 4 4 4 3 3 4 4 3 2 3 3 3 2 4 5 6 6 7 8 6 6 7 9 10 7 5 6 5 5 7 7 5 6 5 8 6 3 1 2 2 1 3 6 8 10 10 10 12 12 12 12 12 12 12 12 12 12 11 11 10 10 10 10 10 10 10 10 10 10 10 10 11 11 11 10 10 10 9 9 9 9 9 9 8
3 2 3 3 3 4 3 3 3 2 3 4 4 4 3 4 5 6 7 6 6 7 6 8 10 6 6 7 5 5 6 7 6 7 4 7 7 2 1 2 1 1 1 3 6 8 9 9 10 11 12 12 13 13 13 13 13 12 12 11 10 10 10 10 10 10 10 11 11 10 10 10 10 11 10 11 11 10 11 10 10 10 10 10 10
4 4 4 3 3 3 2 2 3 3 3 4 6 5 4 5 4 6 7 5 6 8 7 8 10 8 8 8 8 6 6 6 6 6 5 3 4 2 2 3 2 1 1 1 3 6 7 7 9 10 12 13 14 15 14 13 13 12 11 11 10 10 10 10 11 11 11 12 12 11 11 11 11 11 11 11 11 11 11 11 11 11 11 11 11
6 6 4 3 3 3 3 3 4 4 4 5 6 5 6 6 5 5 6 6 6 8 8 8 7 7 8 9 9 7 6 8 7 6 5 2 2 2 1 2 2 2 1 1 1 3 4 6 7 9 12 13 13 14 14 14 13 13 12 11 11 11 11 11 12 12 12 12 12 12 12 12 12 12 12 12 12 12 12 13 12 12 12 11 11
6 7 6 5 4 5 5 5 6 6 6 6 5 6 5 5 6 4 4 7 7 6 7 7 5 5 6 7 7 7 6 8 7 5 4 4 6 4 2 2 2 3 1 1 0 1 2 3 5 7 10 12 11 12 14 14 14 14 13 13 13 13 13 12 12 12 13 13 13 13 13 14 14 14 14 14 14 14 14 13 13 13 13 13 12
8 8 7 6 4 5 7 8 9 7 7 7 5 6 4 4 6 4 2 6 7 6 7 6 5 4 4 5 5 3 4 7 6 4 2 4 5 4 3 3 3 4 3 3 4 3 1 2 3 5 8 10 11 11 12 14 14 14 13 14 15 16 16 13 12 13 15 15 15 15 15 15 15 15 15 15 15 15 14 14 14 14 14 14 13
9 10 9 8 6 7 9 10 10 8 7 7 6 5 4 5 6 4 3 4 5 7 8 6 5 4 5 8 5 1 4 7 8 6 5 4 3 2 3 3 3 4 4 5 3 2 2 1 1 3 6 7 10 11 11 13 13 13 14 16 18 18 16 15 15 18 18 18 17 16 16 16 16 16 16 15 15 15 15 15 15 15 14 14 14
10 11 10 10 9 8 9 9 10 9 6 6 6 5 4 6 5 4 3 4 4 7 8 6 5 5 6 8 5 3 4 7 8 7 5 2 3 2 3 4 5 6 5 6 4 1 3 2 1 2 4 5 7 9 9 11 12 13 15 18 19 17 17 18 19 21 20 18 17 18 17 17 17 17 17 16 16 16 16 16 16 15 15 15 15
11 11 10 11 10 9 8 9 9 7 6 5 5 5 5 4 4 3 4 4 4 6 7 6 5 4 6 7 3 3 2 6 7 3 4 3 4 3 4 5 6 8 7 6 6 3 4 4 2 1 3 4 5 6 6 7 9 12 15 18 17 16 17 19 21 22 20 19 19 20 20 19 19 19 18 18 18 17 17 17 17 17 16 16 15
11 10 11 12 11 9 9 9 8 7 9 7 5 6 5 2 2 4 4 4 4 4 5 5 5 5 7 6 3 3 1 4 6 4 5 3 2 2 5 8 7 9 8 7 7 6 8 7 5 4 3 4 2 3 4 6 7 10 13 15 15 15 17 18 20 21 21 20 21 21 21 21 21 20 20 20 19 19 19 20 19 19 18 17 17
11 11 11 11 10 9 9 9 8 7 9 9 6 5 3 2 3 4 4 4 4 5 5 4 5 6 7 7 3 1 3 4 5 5 5 1 5 2 5 11 10 8 7 7 7 8 8 7 8 9 6 4 3 2 2 4 6 7 8 9 11 12 14 16 17 19 20 20 21 22 22 22 22 21 20 20 21 21 21 21 21 21 20 20 19
13 12 11 10 9 10 10 9 8 7 8 8 4 4 4 3 4 4 3 3 5 7 5 2 4 5 6 9 6 5 4 5 6 7 5 1 6 3 4 9 12 8 7 6 7 8 9 8 8 8 8 6 5 5 4 3 4 4 5 6 8 9 10 12 14 15 16 17 18 19 20 20 21 22 21 21 22 22 21 21 21 22 22 22 21
13 12 11 10 9 9 8 8 7 5 5 6 6 6 4 4 4 4 4 2 4 5 3 1 2 5 6 6 5 6 4 5 7 10 7 2 4 7 7 9 10 6 6 7 8 8 8 8 8 7 6 5 4 5 6 6 4 1 3 4 5 5 6 8 10 12 13 13 15 16 17 17 18 20 21 21 21 21 21 20 20 21 22 22 22
13 12 10 9 8 8 7 7 7 7 9 9 7 6 4 3 4 4 3 3 4 3 2 1 1 7 6 2 1 2 2 4 8 9 5 2 5 7 8 8 8 5 6 7 7 6 6 7 7 7 7 6 6 5 5 6 3 2 1 2 3 4 4 5 6 7 9 10 12 13 14 15 16 17 18 19 19 20 21 21 21 21 21 21 22
12 12 10 8 8 8 7 8 10 10 10 8 7 6 5 4 3 2 2 3 4 5 4 3 3 3 4 1 3 2 1 2 7 6 3 2 5 5 4 6 8 5 5 3 4 4 4 7 7 7 8 8 7 5 5 6 3 2 2 1 1 4 4 5 6 6 7 8 10 11 12 13 14 15 16 17 17 18 19 20 21 21 21 21 21
10 10 9 8 8 8 8 10 11 10 8 7 6 5 5 5 4 2 2 3 5 2 4 3 4 2 1 1 2 1 1 3 5 4 4 5 2 6 6 10 8 5 4 1 3 5 5 7 7 6 7 6 7 7 7 6 3 1 2 3 2 2 4 6 7 8 9 9 10 10 11 11 12 13 14 15 16 17 18 19 20 21 22 22 22
10 10 9 9 9 9 10 11 11 10 7 5 5 6 5 5 4 3 3 2 3 4 3 0 3 2 1 1 1 2 2 4 4 2 4 6 6 1 5 8 7 5 3 4 6 6 4 6 5 4 5 4 4 4 5 5 2 2 3 3 3 2 1 3 6 8 9 10 10 11 10 11 11 11 12 12 13 15 16 17 18 20 21 23 23
10 10 9 9 9 10 11 11 11 10 7 4 4 6 6 5 5 3 2 1 1 3 5 2 2 3 4 4 3 3 2 3 1 1 2 3 5 6 3 4 5 5 4 4 10 7 2 3 3 3 1 2 4 3 3 2 2 2 2 3 3 3 2 1 2 5 6 8 9 10 11 12 12 12 12 12 13 14 15 16 17 18 19 20 22
11 10 10 10 10 11 11 11 10 10 9 6 6 5 4 6 5 3 2 0 1 3 5 5 3 2 5 4 3 3 4 5 2 1 2 2 3 6 6 4 5 7 5 2 6 5 3 4 4 3 1 1 2 2 2 2 2 1 2 3 3 2 2 2 2 3 4 6 7 8 9 11 11 12 12 13 14 14 15 15 15 16 16 18 19
11 11 11 10 11 11 12 11 9 9 8 6 8 7 6 5 4 3 2 2 3 2 4 4 5 3 3 2 2 2 3 4 3 3 1 1 1 4 7 3 5 6 5 2 3 5 3 3 3 2 2 2 1 1 2 3 3 4 4 4 4 4 3 3 3 4 5 5 6 7 8 9 10 11 11 12 13 14 15 16 16 16 16 16 17
11 12 12 11 11 11 11 11 9 9 9 6 7 9 8 7 6 6 5 4 4 3 4 3 3 4 1 3 2 3 4 2 1 1 1 1 1 3 7 4 6 4 2 2 2 2 1 1 3 3 3 3 2 2 3 4 4 6 7 7 8 6 5 6 6 6 6 6 7 8 9 10 10 11 11 12 13 14 15 16 17 17 17 17 17
13 13 12 11 12 12 11 11 10 9 8 7 5 7 9 10 9 9 8 6 5 4 4 4 2 3 2 3 4 5 6 3 2 5 2 0 1 3 7 7 6 5 3 1 2 2 2 3 4 5 5 4 3 4 4 4 6 8 11 12 10 8 9 9 9 9 9 8 8 8 9 10 10 11 12 12 13 14 15 15 15 17 18 18 19
14 14 13 12 13 13 12 12 12 11 9 8 8 8 10 12 12 11 10 8 6 5 5 5 5 5 5 6 6 6 6 4 2 5 3 1 0 3 7 8 6 6 6 5 3 0 1 3 4 5 6 6 5 5 7 8 9 10 13 14 12 10 11 11 12 13 12 11 10 9 9 10 10 11 12 13 13 14 15 16 16 16 17 18 19
15 14 14 14 16 15 13 13 14 13 11 11 12 10 10 12 14 13 11 11 10 8 8 7 7 8 7 7 8 7 4 4 5 5 2 2 2 2 6 8 5 7 10 8 3 1 4 8 8 7 7 8 7 7 8 9 9 9 12 13 13 11 12 13 14 14 14 13 12 11 11 10 10 11 11 12 13 13 14 15 16 16 16 17 18
16 16 15 15 17 16 15 14 13 13 13 12 13 12 11 12 13 13 13 12 11 11 10 9 8 8 8 8 7 6 4 2 1 4 3 2 1 0 3 5 5 8 11 8 4 5 8 11 10 7 8 9 10 9 9 9 9 10 11 12 12 12 14 16 16 15 14 14 14 14 14 13 13 12 12 12 12 13 13 13 13 14 15 15 16
17 17 17 17 18 17 17 17 15 15 16 16 15 13 14 15 12 11 13 14 14 13 11 10 9 8 8 7 7 6 6 6 5 3 4 5 4 4 3 2 3 5 8 8 7 6 8 12 11 8 9 12 13 13 11 9 9 10 12 13 14 15 16 17 16 16 16 16 16 17 16 16 16 15 14 13 13 13 12 11 11 12 13 14 14
19 18 18 18 19 20 21 21 19 19 19 19 19 16 15 17 15 13 13 13 14 13 12 11 10 9 8 8 8 8 7 7 5 3 5 7 5 5 3 3 3 3 4 5 6 6 8 11 12 8 11 12 12 10 9 9 10 11 13 15 16 17 16 16 16 17 18 18 19 19 18 18 18 18 17 16 15 14 14 13 13 13 13 14 14
20 20 20 20 21 23 25 24 22 22 21 21 20 18 17 17 17 16 15 13 13 12 12 11 9 9 9 10 11 10 7 7 7 5 5 6 7 6 5 6 5 3 2 3 4 6 8 11 11 4 8 10 8 8 9 11 12 12 13 16 17 18 18 17 18 18 19 20 21 20 21 21 21 20 20 20 20 19 18 18 17 17 17 17 17
22 22 23 24 24 25 27 25 24 24 22 21 21 20 19 19 18 18 17 15 14 13 13 12 10 9 9 8 9 8 7 7 8 7 6 5 5 5 5 7 8 6 4 3 4 8 10 12 11 5 5 7 7 9 12 12 12 12 14 16 18 19 20 19 19 20 20 22 23 23 24 24 22 21 20 21 22 22 22 22 22 22 22 22 21
25 26 27 28 29 28 28 26 24 24 23 22 22 21 20 20 19 18 18 17 15 14 13 13 12 11 9 9 8 7 6 7 7 6 5 4 4 5 5 8 8 8 9 6 4 7 10 11 11 11 10 11 12 13 14 14 13 14 15 18 19 19 20 21 22 22 23 24 25 25 25 23 21 20 20 20 20 21 22 23 24 24 25 25 25
27 29 30 31 31 30 29 26 24 24 24 23 23 23 22 20 20 18 18 18 17 15 14 13 13 12 11 11 10 9 8 8 8 7 7 6 6 6 8 10 9 9 10 9 5 8 13 13 14 15 14 13 15 15 14 15 15 15 17 19 20 20 21 22 23 23 23 24 24 24 23 22 21 21 21 21 21 21 22 23 24 25 26 26 27
30 31 32 32 31 30 29 27 25 25 25 25 23 24 24 22 21 19 18 19 19 17 16 15 14 12 11 10 9 8 7 8 9 8 8 8 6 8 10 12 13 11 10 11 9 10 15 15 14 15 15 14 16 16 15 15 14 15 17 18 19 19 19 21 22 23 23 23 24 25 24 22 22 22 22 22 23 24 25 26 27 27 27 26 26
33 33 33 32 31 30 29 28 27 27 27 26 25 25 26 25 24 22 20 20 20 20 19 17 16 14 11 9 9 8 8 9 9 8 9 9 9 10 11 11 12 11 9 10 10 10 14 16 15 15 15 15 15 15 15 15 15 15 16 17 18 18 19 20 21 22 22 22 23 23 23 22 22 23 24 25 26 27 27 28 28 28 26 26 26
34 34 33 33 32 31 30 29 29 29 29 29 28 27 27 27 27 24 22 21 20 20 20 19 18 17 14 12 12 11 10 9 10 9 9 11 11 11 11 10 10 11 10 11 12 12 14 17 18 17 15 15 16 17 17 17 16 16 16 18 19 19 20 20 21 22 22 22 22 23 24 25 25 26 26 26 26 26 26 26 26 26 26 26 27
34 34 34 33 33 33 32 31 32 32 31 31 31 29 29 29 28 26 23 22 21 20 20 19 18 17 17 16 15 14 12 11 10 10 10 11 12 12 13 12 12 13 13 14 15 15 16 17 18 19 18 17 18 19 19 19 18 17 17 18 19 19 20 21 21 22 23 23 24 25 26 27 27 27 27 26 26 26 26 26 26 27 27 28 29
33 35 34 34 33 34 35 34 34 34 33 33 34 32 31 30 29 27 24 23 23 21 20 19 19 19 18 19 18 17 16 15 13 11 11 12 13 14 14 13 13 14 14 15 16 16 16 16 17 20 20 19 19 19 18 18 18 19 18 18 19 19 20 21 22 21 22 22 23 24 26 27 27 28 27 26 26 27 28 28 28 29 29 30 30
33 33 34 34 34 35 36 35 35 35 33 34 35 33 31 30 29 27 25 24 23 22 21 21 21 20 19 19 19 18 17 16 14 12 10 12 14 14 14 13 13 14 14 15 15 15 15 17 18 20 20 18 17 18 17 16 18 20 21 21 20 20 20 20 20 20 21 22 23 24 24 25 25 25 25 26 27 28 29 30 30 31 31 31 32
32 30 30 33 34 34 35 35 34 35 34 34 34 33 31 29 28 27 26 25 24 22 21 21 22 21 20 19 19 18 17 15 13 11 10 11 14 15 14 13 13 14 15 16 16 16 17 18 17 17 18 17 18 18 19 20 20 20 21 20 19 19 19 18 19 20 21 23 24 25 25 25 26 26 26 27 28 29 30 31 32 32 32 32 33
31 29 27 29 31 33 35 35 34 34 34 33 34 33 31 29 28 28 27 26 24 23 22 22 21 21 20 19 18 17 16 16 14 12 10 11 13 14 15 15 15 16 17 18 18 18 17 17 16 16 17 18 18 18 20 20 19 19 19 18 18 19 20 19 19 20 22 23 24 25 26 26 26 26 26 27 27 27 28 29 30 31 32 32 32
30 28 25 25 27 30 33 33 33 33 34 34 34 34 33 30 29 29 27 26 25 24 23 23 22 21 20 18 16 15 15 14 13 12 12 11 12 13 15 16 15 15 15 16 17 17 17 16 16 16 16 16 17 16 17 18 18 18 19 18 19 19 20 21 21 21 22 23 24 25 25 26 26 26 25 25 25 25 27 28 29 30 30 31 31
29 27 25 23 24 26 29 31 32 32 32 33 34 36 35 33 31 30 29 28 27 25 25 24 22 21 21 19 16 15 16 14 12 12 12 13 12 13 14 15 14 15 17 19 20 20 19 16 16 16 15 15 16 15 16 18 19 19 18 16 16 18 19 19 20 20 20 21 23 25 25 24 24 25 25 25 26 26 27 29 29 29 29 30 30
27 26 24 23 22 22 23 27 30 31 31 32 34 36 36 35 33 31 30 28 26 24 25 25 22 20 19 18 16 15 15 15 13 12 12 13 14 15 18 19 19 20 22 22 22 22 20 18 17 17 16 16 17 17 18 19 19 18 16 15 16 17 17 15 14 16 17 18 20 23 25 24 24 25 27 27 29 29 29 29 29 29 30 30 30
22 23 22 21 20 20 21 23 26 29 30 31 33 35 36 35 33 29 26 26 25 23 23 22 20 18 17 15 13 12 11 11 11 11 11 12 13 15 18 19 21 23 24 23 23 23 22 20 19 19 19 19 18 18 18 17 16 17 17 17 16 17 16 14 14 16 16 18 21 25 28 28 26 26 27 27 28 29 28 28 29 30 31 31 29
17 20 20 19 19 20 21 23 25 27 27 28 31 33 35 35 31 26 23 23 23 22 20 18 17 17 15 13 12 12 10 8 7 9 11 12 12 13 15 17 20 24 24 24 25 25 25 24 22 22 23 21 19 18 18 17 17 17 16 16 17 17 17 18 19 21 22 23 25 27 28 27 25 25 26 28 29 29 29 29 29 29 30 29 27
12 16 17 17 18 20 22 23 24 24 25 25 28 32 35 35 31 25 21 21 21 20 19 18 17 15 14 13 13 12 10 8 7 8 11 13 12 13 16 19 23 25 24 24 24 24 24 25 26 28 27 25 23 22 20 17 15 15 15 17 18 20 22 22 23 26 26 24 24 24 24 24 25 26 27 28 29 29 29 27 25 24 26 28 29
11 13 14 14 16 18 20 20 19 19 19 20 23 31 36 35 31 24 20 20 21 21 19 18 17 16 15 15 14 11 8 7 7 8 10 12 12 14 16 19 22 24 23 23 22 21 21 23 25 28 28 25 24 22 19 16 18 19 19 20 21 22 23 24 24 25 23 21 22 23 22 22 24 23 23 26 27 27 27 27 26 26 28 31 33
9 10 12 15 16 16 16 17 16 15 17 18 22 30 36 36 32 25 21 21 21 20 19 18 17 17 17 16 13 9 8 7 8 9 9 10 11 13 16 18 19 21 21 20 18 19 22 22 22 23 23 21 20 20 19 20 23 25 22 20 20 22 21 20 20 21 21 20 21 23 23 23 23 22 23 26 28 28 29 29 29 30 32 34 36
8 9 12 15 17 17 17 17 16 16 17 19 23 31 35 35 32 26 21 19 19 20 20 19 17 17 16 15 12 10 10 10 10 10 9 11 13 15 17 18 18 18 18 17 17 19 22 23 23 22 21 20 19 20 21 22 23 23 20 20 22 23 20 16 15 17 19 19 21 24 25 24 23 21 22 25 26 26 28 30 31 32 33 35 36
9 9 10 11 13 17 18 17 18 19 19 21 27 33 36 35 31 25 20 18 18 20 21 19 17 16 14 13 12 12 13 14 13 12 12 14 17 17 16 16 16 15 15 15 16 16 16 16 17 17 16 16 17 19 21 22 22 21 22 24 26 25 20 15 15 18 19 21 24 24 21 19 19 19 21 24 26 26 28 29 31 33 33 34 34
9 8 7 7 10 13 15 16 18 20 21 25 30 33 34 33 30 26 23 22 21 20 19 17 15 14 14 14 14 14 16 15 14 14 14 15 16 15 13 13 13 13 13 13 13 12 12 12 12 13 14 15 17 20 22 22 22 20 22 26 28 26 22 20 20 17 13 15 18 19 18 19 19 20 22 21 17 20 26 28 29 31 32 33 33
Wind_Direction
218 209 219 230 216 220 226 227 245 269 280 276 294 326 324 320 324 336 339 344 359 351 347 334 323 338 360 9 359 345 352 355 334 312 221 193 194 182 153 26 30 192 210 210 206 207 208 209 211 209 206 207 209 208 207 207 209 212 215 217 218 217 216 215 217 219 223 226 226 230 232 231 230 225 219 218 219 222 222 222 225 229 233 238 241
203 194 219 226 199 218 228 246 269 257 256 269 287 309 309 321 325 326 338 346 352 342 352 345 325 341 6 350 353 7 2 345 318 294 247 194 190 193 237 337 13 87 189 211 212 210 212 212 213 213 208 207 211 213 213 213 212 213 214 218 221 221 223 220 218 222 224 228 231 235 238 238 240 238 231 225 225 228 228 229 231 234 239 243 247
216 195 208 215 208 232 239 251 258 251 274 282 287 287 293 326 328 321 330 337 345 339 336 330 333 357 353 344 8 19 2 344 321 308 272 194 186 163 264 286 319 30 114 196 215 215 218 213 212 214 211 209 211 212 213 215 216 215 215 218 221 223 227 227 224 225 226 229 231 236 239 240 244 244 239 233 232 234 234 236 237 240 245 248 251
233 212 208 235 246 261 271 276 266 265 294 293 288 290 297 310 316 318 321 333 340 332 323 319 343 5 340 356 24 10 357 331 301 328 4 168 183 151 226 243 206 347 32 133 203 210 219 217 213 210 211 215 215 214 212 214 218 219 221 222 225 228 230 233 234 231 230 232 232 234 238 240 244 245 244 242 239 240 240 241 242 246 249 253 256
230 228 226 248 262 271 264 276 282 268 268 278 287 295 298 299 305 311 318 335 322 317 330 330 356 5 332 353 6 356 350 317 302 336 6 75 102 103 196 223 207 266 264 157 162 195 209 215 215 208 210 217 217 218 216 215 216 216 221 224 227 231 235 238 241 243 240 237 234 234 237 239 241 243 245 245 244 244 245 246 247 249 250 253 257
229 233 230 233 256 262 247 257 266 264 263 265 283 290 294 308 312 311 323 326 311 316 328 319 1 14 340 346 340 349 348 321 338 359 347 28 48 67 66 58 42 347 277 245 294 200 185 202 216 212 212 217 216 217 218 217 217 216 218 222 223 226 229 230 236 247 250 246 242 239 238 239 239 240 242 244 246 247 249 251 251 253 254 253 255
220 233 235 234 248 252 255 264 260 261 261 256 271 278 287 314 307 310 342 322 314 319 309 307 356 5 339 326 297 317 329 318 345 8 50 49 36 52 41 14 26 27 13 334 295 233 177 178 212 224 216 213 215 219 221 220 220 219 218 222 225 228 229 225 224 232 238 241 242 240 240 240 240 241 242 243 246 249 251 253 253 255 257 256 256
217 238 243 239 239 243 256 266 264 263 250 244 258 263 276 294 295 309 328 315 307 302 305 323 343 328 319 313 297 309 326 324 336 359 42 53 18 36 46 31 35 40 36 8 320 213 127 113 201 236 228 214 212 217 223 224 222 221 220 225 227 229 230 226 225 229 228 228 231 235 239 241 242 243 244 246 247 249 251 253 254 254 256 257 258
218 236 243 241 241 245 255 261 265 264 246 243 250 250 276 284 287 303 291 285 293 304 321 338 329 328 324 311 325 6 336 334 339 357 5 358 38 80 119 89 71 58 51 50 45 103 99 69 45 240 232 227 222 217 219 221 223 223 223 230 229 226 229 227 229 234 233 230 229 232 236 238 241 243 244 246 248 249 251 252 253 254 255 257 258
222 231 241 242 238 236 243 257 263 252 237 241 244 256 278 280 284 293 280 279 288 305 321 327 318 312 298 295 337 12 327 331 324 299 268 277 53 70 136 121 92 74 59 56 56 59 71 65 67 158 201 212 234 231 225 222 226 229 227 234 235 226 228 230 231 237 238 236 235 235 235 236 239 242 243 245 248 250 252 253 253 253 254 256 257
239 244 246 244 239 229 227 244 254 239 235 242 250 263 269 252 265 266 258 262 266 289 294 293 301 288 284 297 357 6 257 304 299 265 276 275 81 34 109 106 81 75 65 48 52 58 55 57 74 74 119 171 195 220 232 228 224 234 235 237 240 235 234 234 235 240 242 242 242 243 242 242 242 243 246 247 249 250 250 252 253 254 254 256 257
242 247 242 241 234 221 221 230 232 229 234 242 248 246 223 182 229 243 249 260 254 271 271 269 302 307 303 296 280 260 242 257 259 248 289 199 128 50 93 93 66 62 64 57 64 65 59 59 66 59 66 105 116 133 195 216 210 227 237 238 241 242 241 239 239 242 245 246 247 248 248 248 248 248 249 248 248 248 249 250 251 253 254 255 256
231 238 235 237 231 218 224 221 212 225 233 230 214 174 166 193 223 234 238 255 255 261 260 253 313 307 296 285 231 189 232 248 237 242 272 172 133 99 86 77 60 51 44 66 89 77 73 75 65 54 54 70 95 106 109 139 179 210 228 245 249 248 248 247 248 248 250 250 249 251 253 254 254 252 252 251 249 247 248 249 249 251 252 253 255
224 234 229 227 223 213 215 206 199 211 192 166 147 144 161 192 207 224 217 221 245 265 278 196 317 299 287 284 213 174 210 240 248 254 257 214 131 106 95 73 61 53 29 51 82 75 69 73 72 70 66 65 83 91 103 120 123 156 207 233 244 246 250 252 254 255 258 259 257 257 256 256 257 255 256 257 255 252 250 249 249 250 250 251 252
217 223 216 208 204 197 191 176 172 159 140 141 147 150 160 188 205 219 209 221 226 229 287 205 300 307 300 300 200 162 199 257 278 264 238 133 111 95 86 93 93 72 30 34 54 64 62 59 61 69 80 90 88 84 104 116 102 62 154 201 216 220 230 242 251 254 256 260 261 260 258 257 257 255 256 259 260 258 254 250 249 250 249 249 250
210 204 193 185 177 173 166 148 146 144 140 151 163 163 169 185 196 194 194 282 266 208 198 180 125 341 324 330 297 310 116 303 304 275 262 73 132 126 67 114 120 65 33 30 28 54 66 48 44 57 73 86 89 95 107 107 102 84 85 84 223 227 231 241 247 250 250 252 255 257 259 260 259 257 256 256 259 260 257 252 250 251 251 250 250
197 188 175 171 169 166 166 153 148 149 154 165 163 157 170 179 174 176 207 294 314 251 188 169 122 80 329 310 306 308 76 348 326 290 296 322 195 155 132 131 128 67 48 104 61 73 68 42 44 65 68 75 92 104 115 117 126 55 7 360 352 245 236 244 245 246 248 250 256 259 260 262 261 260 258 255 256 257 257 256 253 253 252 252 251
188 186 174 176 176 170 168 160 155 154 159 168 151 156 183 186 165 173 210 241 334 330 326 156 135 140 228 240 250 251 305 342 339 299 284 313 334 9 149 139 120 102 127 178 142 112 64 46 50 68 71 72 86 111 140 140 180 285 342 7 38 42 250 246 247 248 252 253 259 263 263 264 263 262 261 259 258 257 258 258 257 257 256 255 253
185 186 179 180 175 167 166 162 161 160 159 160 165 187 194 170 150 165 206 195 67 315 317 313 174 192 196 202 234 248 287 316 332 324 296 315 340 322 249 147 132 147 152 163 148 130 64 90 65 31 80 94 88 120 171 173 243 264 351 21 47 38 31 348 280 268 270 267 267 269 269 270 269 267 266 263 262 262 262 263 261 261 260 259 257
187 185 179 176 168 163 163 163 167 168 161 161 190 213 170 135 137 140 152 182 220 280 308 328 328 220 168 178 230 211 230 253 243 79 349 329 330 295 257 166 134 150 139 143 153 121 81 131 98 49 174 191 121 141 240 257 257 264 319 345 11 6 1 350 324 306 297 291 286 283 279 277 276 272 269 266 264 264 266 268 267 265 263 262 261
187 180 174 172 166 163 164 167 172 169 166 180 197 189 150 138 153 149 173 212 200 243 284 307 329 342 120 143 238 242 266 254 205 167 190 275 5 312 276 277 66 100 120 119 134 102 81 127 84 52 159 199 210 188 194 206 249 294 299 316 329 319 315 309 301 300 296 294 294 292 291 287 285 282 277 272 268 265 265 266 267 267 266 264 263
180 173 172 173 168 167 168 171 177 175 180 199 193 172 165 175 181 180 196 207 189 208 255 263 309 330 80 149 218 278 295 278 229 232 154 178 243 293 290 322 39 57 145 128 79 75 285 291 327 299 201 183 226 225 191 197 233 266 280 300 309 309 311 303 291 287 282 282 284 285 288 289 289 288 286 284 279 274 270 266 266 265 264 265 264
178 172 176 181 175 174 176 178 183 185 190 198 190 182 187 189 186 183 185 195 201 201 233 252 271 296 253 191 219 245 234 214 324 318 330 142 269 300 313 337 356 324 271 250 312 306 283 292 289 265 219 199 219 207 202 213 224 249 273 281 282 293 306 304 299 292 281 276 276 276 280 283 287 289 288 289 287 284 282 277 272 269 266 265 264
180 176 179 189 185 182 185 188 188 187 192 198 198 201 197 186 180 181 179 187 201 197 213 236 235 242 238 212 222 234 210 179 232 284 279 219 358 329 316 325 341 329 323 320 315 301 299 293 262 247 231 221 234 229 231 244 245 259 274 269 262 271 285 294 299 294 283 276 275 273 276 279 282 286 288 290 289 287 286 285 283 279 275 272 269
185 181 180 189 190 189 192 193 190 189 196 202 201 202 199 184 175 176 179 184 194 197 205 220 220 228 244 238 234 240 226 191 214 244 251 169 185 247 289 308 329 320 317 325 338 309 296 295 278 258 238 226 235 241 241 256 263 265 267 264 264 270 279 290 295 290 281 278 277 274 275 278 280 283 286 289 290 289 288 286 286 286 284 282 279
187 188 188 191 190 190 194 198 195 193 198 204 201 200 203 194 178 174 180 185 190 192 197 212 220 225 244 258 269 282 295 326 255 246 266 258 231 268 297 307 309 302 306 312 307 296 299 300 288 258 245 242 240 238 237 246 260 264 258 256 262 274 286 291 290 284 279 279 281 277 274 273 275 279 282 285 287 288 288 288 288 290 292 291 289
187 191 193 193 189 188 192 197 201 199 203 206 200 198 204 203 191 180 185 191 190 190 195 206 216 220 229 250 281 301 304 324 352 355 328 333 358 24 22 347 300 293 302 307 302 286 282 293 290 256 244 249 246 247 246 237 240 255 260 259 266 276 283 286 284 279 276 276 280 282 279 274 272 274 275 277 279 280 282 285 288 291 294 297 298
188 191 194 193 190 191 194 197 203 204 205 205 200 198 201 201 198 192 192 193 188 188 198 206 213 218 220 228 247 267 285 299 310 328 337 339 348 358 348 311 302 304 305 313 312 297 287 301 303 265 237 247 250 250 254 254 253 257 261 264 269 273 275 278 280 279 277 276 277 280 281 278 276 274 272 270 270 270 272 275 281 285 290 294 297
189 191 194 195 194 196 199 200 202 203 204 204 201 200 201 198 198 196 193 193 190 191 201 211 217 223 230 229 228 241 264 275 273 269 281 300 308 312 301 285 287 293 298 304 298 304 309 309 310 277 219 231 246 261 275 283 279 268 263 268 272 274 274 271 271 272 275 276 276 276 278 280 280 277 273 268 265 264 266 270 275 280 284 286 288
193 193 194 198 199 200 201 200 200 200 202 203 201 200 201 198 199 198 194 194 197 196 198 208 221 232 247 249 232 233 248 257 267 269 263 266 267 268 270 271 270 260 260 280 286 292 296 293 296 295 248 246 255 268 274 276 275 271 272 277 279 280 280 275 270 269 270 272 273 274 276 279 279 277 274 271 268 265 265 268 272 275 278 280 281
196 197 197 200 202 202 202 201 200 199 200 201 200 200 200 198 199 199 197 197 201 200 194 200 216 228 239 251 258 267 272 271 279 285 280 264 239 240 259 264 258 248 249 257 269 273 274 279 285 285 281 283 284 280 273 269 269 273 274 276 277 278 278 276 273 273 272 272 273 274 276 277 277 275 274 275 273 270 268 269 270 272 273 273 274
200 201 202 203 203 203 203 201 199 199 199 199 199 200 200 199 199 200 199 200 203 203 199 200 211 219 223 233 250 264 269 270 274 279 276 265 249 251 254 247 239 235 243 248 255 269 270 272 277 280 282 285 288 287 280 272 269 270 271 272 275 276 275 274 275 276 277 277 276 275 276 277 277 276 274 274 274 273 272 272 272 273 272 272 272
203 205 206 206 205 204 203 200 198 197 197 197 197 198 198 199 199 200 202 202 202 204 205 206 210 212 212 215 225 237 249 260 265 266 268 267 262 258 253 246 244 241 239 242 247 266 275 273 273 281 287 288 287 288 286 281 276 274 274 275 276 276 274 274 274 275 276 276 276 277 278 277 275 274 272 271 271 272 273 272 273 276 276 275 275
206 207 208 208 206 204 203 200 197 196 196 196 196 196 197 199 200 201 202 202 203 204 205 209 214 216 218 218 219 225 236 251 259 262 267 265 261 261 261 255 250 249 247 250 253 262 275 280 280 283 288 290 289 290 292 292 289 284 278 276 276 275 275 274 273 273 274 274 274 275 275 273 271 271 272 272 272 272 273 273 274 276 276 275 277
208 209 209 209 207 205 204 200 197 196 196 195 195 196 197 199 201 202 203 204 203 202 202 206 209 212 215 219 221 221 222 237 248 254 262 262 258 259 263 263 263 268 272 271 270 269 274 281 284 286 290 293 292 293 295 294 293 290 282 277 277 276 274 274 273 273 273 274 273 273 273 273 274 274 275 275 275 274 274 273 274 274 275 277 279
209 210 210 210 208 206 204 201 198 197 197 196 196 196 198 200 201 202 203 204 205 203 203 204 204 205 207 212 216 213 209 217 232 241 250 255 255 255 258 262 268 272 274 271 269 267 268 273 279 284 287 290 291 293 296 295 292 290 285 282 281 278 277 277 275 274 273 274 275 274 273 275 277 279 279 278 277 276 275 274 273 272 274 276 278
209 210 210 210 209 207 204 202 200 199 198 197 196 196 198 200 201 202 202 203 204 205 208 208 208 211 212 214 216 213 207 207 212 222 236 245 250 252 254 257 262 267 270 269 264 262 264 268 276 283 286 289 289 289 291 292 291 291 289 286 284 282 282 281 276 273 274 276 277 276 275 275 276 277 278 277 276 276 276 276 275 274 274 275 275
208 209 210 210 209 208 206 204 202 200 198 198 197 196 197 199 200 201 202 203 202 204 208 209 209 212 214 215 217 217 215 214 209 210 224 240 249 252 252 257 265 269 268 265 261 262 268 272 275 280 284 286 286 286 288 288 288 290 289 285 285 284 283 280 276 274 277 279 280 278 277 277 277 277 277 276 275 275 276 277 277 277 277 275 274
206 207 209 209 210 210 207 205 202 201 199 198 198 198 197 198 199 200 202 202 202 203 205 206 206 210 214 217 220 221 224 227 223 213 217 239 251 251 252 261 270 271 271 271 270 271 273 272 270 273 280 284 284 286 292 295 290 286 283 282 283 284 282 280 279 280 282 282 280 278 278 279 278 277 277 277 276 276 277 278 278 278 277 275 273
208 208 208 208 209 210 209 206 204 202 200 199 199 199 198 198 198 199 200 201 201 201 202 203 205 208 213 220 225 227 232 237 237 229 222 239 255 258 259 264 269 272 276 278 278 274 270 267 270 276 280 282 282 286 293 295 287 282 282 281 279 282 286 287 286 287 287 285 282 281 281 282 280 277 277 278 278 278 279 280 278 275 274 273 272
210 212 211 207 206 208 209 207 204 203 202 201 200 199 198 198 197 197 199 200 199 199 200 202 204 207 211 219 224 229 238 245 247 241 228 231 253 268 270 269 269 271 278 284 286 282 276 273 277 280 279 278 281 286 291 290 286 288 290 285 281 285 291 292 291 290 288 286 284 283 283 283 282 280 280 280 280 281 282 281 277 274 273 272 272
212 214 213 208 203 204 206 204 203 204 204 203 202 201 200 198 197 196 198 200 198 197 199 200 201 204 210 217 222 228 238 245 248 249 242 235 244 259 266 268 271 276 282 288 288 285 283 280 278 278 278 278 282 286 288 289 291 294 297 294 293 294 295 293 290 289 288 288 286 284 284 284 283 283 283 283 285 285 283 279 276 274 275 275 275
214 214 213 209 202 200 200 201 203 205 206 206 204 203 201 199 198 197 198 198 196 195 198 199 199 202 209 218 224 231 238 242 247 256 257 247 247 257 263 264 266 273 281 283 280 276 276 277 277 277 276 276 281 286 289 291 293 295 300 303 301 296 291 286 285 287 290 292 292 291 289 287 288 288 287 288 287 285 283 280 277 276 277 277 275
215 212 213 213 209 205 202 201 204 206 208 209 206 204 202 200 198 197 196 194 191 192 194 196 197 201 209 219 226 228 229 234 245 262 268 263 264 270 270 265 263 268 274 277 273 270 270 272 274 273 273 275 280 284 286 290 294 297 300 301 298 294 292 289 288 290 291 293 296 296 292 289 291 290 288 288 286 284 282 279 278 278 280 279 276
212 211 215 217 215 212 211 210 210 209 210 211 208 203 202 200 197 196 193 188 187 190 191 190 193 202 212 218 220 220 223 234 254 274 281 281 282 278 272 270 270 271 274 275 272 268 267 268 268 268 271 274 276 278 283 287 292 296 297 296 295 295 293 291 289 289 290 291 292 290 287 288 291 288 285 287 286 282 281 279 280 281 281 281 283
207 210 212 215 217 220 221 221 219 215 215 214 208 203 201 199 194 190 184 179 182 187 189 189 193 202 213 217 220 227 237 252 268 278 279 277 273 269 268 271 274 277 278 275 272 270 268 266 265 264 268 272 274 276 279 280 283 286 287 288 290 290 289 288 288 288 289 291 289 284 280 284 287 281 276 281 284 284 284 285 285 285 284 285 289
208 209 212 218 224 227 228 229 228 224 220 213 204 200 198 194 189 184 178 178 183 186 191 199 203 207 214 219 226 238 249 263 281 287 280 270 264 265 266 269 273 276 274 270 271 273 272 268 266 266 269 273 274 272 271 274 279 281 283 285 287 287 286 285 285 285 287 290 288 278 273 280 285 279 276 284 290 292 293 292 290 289 289 289 290
214 214 219 226 228 229 229 229 228 222 215 209 201 198 196 191 188 185 183 186 190 193 200 209 213 216 221 224 228 241 256 276 297 296 277 263 265 271 268 267 271 272 267 266 269 272 270 269 271 271 269 269 267 267 273 282 285 285 285 285 282 280 278 277 278 279 282 286 286 279 277 285 290 287 287 293 294 295 295 294 293 293 292 290 288
213 223 230 230 226 223 225 225 220 211 206 204 200 195 192 189 187 185 184 186 193 203 209 214 218 220 222 225 231 247 265 283 298 294 275 267 274 276 269 265 269 268 265 267 271 273 272 271 272 272 269 268 270 275 283 287 288 284 277 271 271 270 267 267 271 275 278 284 286 282 277 281 289 293 295 297 296 295 295 294 293 293 291 289 288
206 221 226 220 212 213 219 219 214 208 200 195 195 192 188 188 188 188 189 190 197 210 217 221 223 222 224 231 244 259 270 279 287 286 277 272 274 271 260 255 259 262 265 269 272 278 282 278 275 274 272 273 278 285 290 290 287 279 265 261 265 266 263 266 272 278 281 282 284 285 281 286 301 313 313 308 301 296 295 294 294 293 291 290 290
184 194 203 198 193 201 209 207 204 204 195 187 190 191 189 190 195 196 197 199 203 211 216 217 219 224 232 241 249 258 267 275 281 283 278 269 264 258 247 245 254 260 264 267 273 287 296 292 286 285 283 282 284 285 286 285 284 280 272 269 270 266 264 269 273 277 280 275 281 300 313 313 316 320 316 311 302 296 297 295 294 294 293 292 293